| time (UTC) | temp C | wind direction | speed KPH | gust KPH | rain 1hr cm | rain 24hr cm | rain mn cm | humidity % | barometer mb |
| 20260904161314 | 23 | 4 | 8.0 | 8.0 | 0.00 | 0.23 | 0.23 | 90 | 1016.7 |
| 20260904160809 | 23 | 293 | 1.6 | 4.8 | 0.00 | 0.23 | 0.23 | 93 | 1016.4 |
| 20260904160304 | 22 | 169 | 4.8 | 8.0 | 0.00 | 0.23 | 0.23 | 95 | 1016.3 |
| 20260904155758 | 22 | 128 | 4.8 | 6.4 | 0.00 | 0.23 | 0.23 | 94 | 1016.4 |
| 20260904155258 | 22 | 157 | 3.2 | 6.4 | 0.00 | 0.23 | 0.23 | 95 | 1016.3 |
| 20260904154756 | 22 | 153 | 6.4 | 11.3 | 0.00 | 0.23 | 0.23 | 96 | 1016.0 |
| 20260904154252 | 21 | 121 | 4.8 | 4.8 | 0.00 | 0.23 | 0.23 | 98 | 1016.4 |
| 20260904153747 | 21 | 137 | 6.4 | 6.4 | 0.00 | 0.23 | 0.23 | 98 | 1016.6 |
| 20260904153243 | 21 | 57 | 1.6 | 1.6 | 0.00 | 0.23 | 0.23 | 98 | 1016.7 |
| 20260904152739 | 21 | 56 | 1.6 | 1.6 | 0.00 | 0.23 | 0.23 | 98 | 1016.9 |
| 20260904152234 | 21 | 56 | 1.6 | 4.8 | 0.18 | 0.23 | 0.23 | 98 | 1016.9 |
| 20260904151729 | 21 | 64 | 1.6 | 1.6 | 0.18 | 0.23 | 0.23 | 98 | 1016.9 |
| 20260904151228 | 21 | 62 | 0.0 | 0.0 | 0.18 | 0.20 | 0.20 | 98 | 1016.9 |
| 20260904150724 | 21 | 62 | 0.0 | 1.6 | 0.30 | 0.20 | 0.20 | 98 | 1016.9 |
| 20260904150219 | 21 | 115 | 0.0 | 1.6 | 0.30 | 0.18 | 0.18 | 98 | 1017.2 |
| 20260904145717 | 21 | 119 | 1.6 | 4.8 | 0.48 | 0.15 | 0.15 | 97 | 1017.2 |
| 20260904145213 | 21 | 58 | 0.0 | 1.6 | 0.30 | 0.10 | 0.10 | 97 | 1017.4 |
| 20260904144708 | 21 | 39 | 1.6 | 1.6 | 0.13 | 0.08 | 0.08 | 97 | 1017.3 |
| 20260904144204 | 21 | 24 | 0.0 | 0.0 | 0.18 | 0.05 | 0.05 | 97 | 1017.3 |
| 20260904143659 | 21 | 20 | 3.2 | 4.8 | 0.18 | 0.05 | 0.05 | 97 | 1017.1 |
| 20260904143156 | 21 | 2 | 0.0 | 0.0 | 0.00 | 0.03 | 0.03 | 97 | 1017.3 |
| 20260904142652 | 21 | 28 | 1.6 | 1.6 | 0.00 | 0.03 | 0.03 | 97 | 1017.0 |
| 20260904142148 | 21 | 20 | 0.0 | 0.0 | 0.00 | 0.03 | 0.03 | 97 | 1017.3 |
| 20260904141643 | 21 | 33 | 1.6 | 1.6 | 0.00 | 0.03 | 0.03 | 98 | 1017.3 |
| 20260904141138 | 21 | 25 | 1.6 | 0.0 | 0.00 | 0.03 | 0.03 | 98 | 1017.1 |
| 20260904140634 | 21 | 12 | 0.0 | 1.6 | 0.00 | 0.03 | 0.03 | 98 | 1017.1 |
| 20260904140133 | 21 | 8 | 0.0 | 1.6 | 0.00 | 0.03 | 0.03 | 98 | 1017.1 |
| 20260904135627 | 21 | 9 | 1.6 | 1.6 | 0.00 | 0.03 | 0.03 | 98 | 1017.0 |
| 20260904135123 | 21 | 9 | 0.0 | 1.6 | 0.00 | 0.03 | 0.03 | 99 | 1016.7 |
| 20260904134619 | 21 | 3 | 0.0 | 0.0 | 0.00 | 0.03 | 0.03 | 99 | 1016.6 |
| 20260904134117 | 21 | 341 | 3.2 | 1.6 | 0.00 | 0.03 | 0.03 | 99 | 1016.5 |
| 20260904133613 | 21 | 156 | 1.6 | 1.6 | 0.00 | 0.03 | 0.03 | 99 | 1016.3 |
| 20260904133109 | 21 | 127 | 1.6 | 1.6 | 0.00 | 0.03 | 0.03 | 99 | 1016.2 |
| 20260904132608 | 20 | 126 | 1.6 | 1.6 | 0.00 | 0.03 | 0.03 | 99 | 1016.1 |
| 20260904132103 | 20 | 126 | 0.0 | 0.0 | 0.00 | 0.03 | 0.03 | 99 | 1016.2 |
| 20260904131603 | 20 | 125 | 0.0 | 1.6 | 0.00 | 0.03 | 0.03 | 99 | 1016.0 |
| 20260904131058 | 20 | 112 | 0.0 | 0.0 | 0.00 | 0.03 | 0.03 | 99 | 1016.2 |
| 20260904130558 | 20 | 112 | 1.6 | 1.6 | 0.00 | 0.03 | 0.03 | 99 | 1016.4 |
| 20260904130053 | 20 | 113 | 0.0 | 0.0 | 0.00 | 0.03 | 0.03 | 99 | 1016.4 |
| 20260904125549 | 20 | 113 | 0.0 | 1.6 | 0.00 | 0.03 | 0.03 | 99 | 1016.1 |
| 20260904125044 | 20 | 112 | 3.2 | 4.8 | 0.00 | 0.03 | 0.03 | 99 | 1016.0 |
| 20260904124539 | 20 | 110 | 0.0 | 0.0 | 0.00 | 0.03 | 0.03 | 99 | 1016.2 |
| 20260904124034 | 20 | 109 | 1.6 | 4.8 | 0.00 | 0.03 | 0.03 | 99 | 1016.3 |
| 20260904123529 | 20 | 108 | 3.2 | 1.6 | 0.00 | 0.03 | 0.03 | 99 | 1016.0 |
| 20260904123024 | 20 | 108 | 3.2 | 1.6 | 0.00 | 0.03 | 0.03 | 99 | 1016.3 |
| 20260904122519 | 20 | 224 | 1.6 | 6.4 | 0.00 | 0.03 | 0.03 | 99 | 1016.3 |
| 20260904122014 | 20 | 110 | 1.6 | 4.8 | 0.00 | 0.03 | 0.03 | 99 | 1016.3 |
| 20260904121509 | 20 | 111 | 0.0 | 1.6 | 0.00 | 0.03 | 0.03 | 99 | 1016.1 |
| 20260904121005 | 20 | 128 | 0.0 | 0.0 | 0.00 | 0.03 | 0.03 | 99 | 1016.4 |
| 20260904120501 | 19 | 126 | 1.6 | 4.8 | 0.00 | 0.03 | 0.03 | 99 | 1016.4 |
| 20260904115955 | 19 | 51 | 0.0 | 0.0 | 0.00 | 0.03 | 0.03 | 99 | 1016.4 |
| 20260904115451 | 19 | 50 | 0.0 | 0.0 | 0.00 | 0.03 | 0.03 | 99 | 1016.5 |
| 20260904114951 | 19 | 50 | 1.6 | 1.6 | 0.00 | 0.03 | 0.03 | 99 | 1016.5 |
| 20260904114446 | 18 | 101 | 0.0 | 0.0 | 0.00 | 0.03 | 0.03 | 99 | 1016.4 |
| 20260904113941 | 18 | 101 | 0.0 | 0.0 | 0.00 | 0.03 | 0.03 | 99 | 1016.2 |
| 20260904113440 | 18 | 101 | 1.6 | 1.6 | 0.00 | 0.03 | 0.03 | 99 | 1016.3 |
| 20260904112940 | 18 | 101 | 1.6 | 1.6 | 0.00 | 0.03 | 0.03 | 99 | 1016.3 |
| 20260904112436 | 18 | 102 | 0.0 | 0.0 | 0.00 | 0.03 | 0.03 | 99 | 1016.2 |
| 20260904111931 | 18 | 100 | 1.6 | 1.6 | 0.00 | 0.03 | 0.03 | 99 | 1016.2 |
| 20260904111427 | 18 | 102 | 1.6 | 4.8 | 0.00 | 0.03 | 0.03 | 99 | 1016.2 |
| 20260904110923 | 18 | 67 | 0.0 | 0.0 | 0.00 | 0.03 | 0.03 | 99 | 1016.1 |
| 20260904110421 | 18 | 68 | 1.6 | 1.6 | 0.00 | 0.03 | 0.03 | 99 | 1016.0 |
| 20260904105917 | 18 | 33 | 0.0 | 0.0 | 0.00 | 0.03 | 0.03 | 99 | 1016.3 |
| 20260904105412 | 18 | 33 | 0.0 | 0.0 | 0.00 | 0.03 | 0.03 | 99 | 1016.0 |
| 20260904104907 | 18 | 33 | 0.0 | 0.0 | 0.00 | 0.03 | 0.03 | 99 | 1016.1 |
| 20260904104401 | 18 | 33 | 0.0 | 0.0 | 0.00 | 0.03 | 0.03 | 99 | 1015.9 |
| 20260904103859 | 18 | 33 | 0.0 | 0.0 | 0.00 | 0.03 | 0.03 | 99 | 1015.9 |
| 20260904103358 | 18 | 33 | 1.6 | 1.6 | 0.00 | 0.03 | 0.03 | 99 | 1015.5 |
| 20260904102854 | 18 | 33 | 0.0 | 1.6 | 0.00 | 0.03 | 0.03 | 99 | 1015.2 |
| 20260904102349 | 18 | 33 | 0.0 | 0.0 | 0.00 | 0.03 | 0.03 | 99 | 1015.4 |
| 20260904101845 | 18 | 33 | 0.0 | 0.0 | 0.00 | 0.03 | 0.03 | 99 | 1015.9 |
| 20260904101342 | 18 | 33 | 0.0 | 0.0 | 0.00 | 0.03 | 0.03 | 99 | 1015.8 |
| 20260904100837 | 18 | 33 | 0.0 | 0.0 | 0.00 | 0.03 | 0.03 | 99 | 1015.9 |
| 20260904100333 | 18 | 33 | 0.0 | 0.0 | 0.00 | 0.03 | 0.03 | 99 | 1015.9 |
| 20260904095828 | 18 | 33 | 0.0 | 0.0 | 0.00 | 0.03 | 0.03 | 99 | 1016.1 |
| 20260904095322 | 18 | 33 | 0.0 | 0.0 | 0.00 | 0.03 | 0.03 | 99 | 1016.2 |
| 20260904094817 | 18 | 33 | 0.0 | 0.0 | 0.00 | 0.03 | 0.03 | 99 | 1016.1 |
| 20260904094312 | 18 | 33 | 0.0 | 0.0 | 0.00 | 0.03 | 0.03 | 99 | 1015.9 |
| 20260904093808 | 18 | 32 | 0.0 | 0.0 | 0.00 | 0.03 | 0.03 | 99 | 1015.7 |
| 20260904093303 | 18 | 33 | 0.0 | 0.0 | 0.00 | 0.03 | 0.03 | 99 | 1015.6 |
| 20260904092758 | 18 | 33 | 0.0 | 0.0 | 0.00 | 0.03 | 0.03 | 99 | 1015.7 |
| 20260904092255 | 18 | 33 | 0.0 | 0.0 | 0.00 | 0.03 | 0.03 | 99 | 1015.7 |
| 20260904091751 | 18 | 33 | 0.0 | 0.0 | 0.00 | 0.03 | 0.03 | 99 | 1015.7 |
| 20260904091245 | 18 | 32 | 0.0 | 0.0 | 0.00 | 0.03 | 0.03 | 99 | 1015.6 |
| 20260904090741 | 18 | 32 | 0.0 | 0.0 | 0.00 | 0.03 | 0.03 | 99 | 1015.6 |
| 20260904090236 | 18 | 32 | 0.0 | 0.0 | 0.00 | 0.03 | 0.03 | 99 | 1015.6 |
| 20260904085730 | 18 | 32 | 1.6 | 1.6 | 0.00 | 0.03 | 0.03 | 99 | 1015.5 |
| 20260904085226 | 18 | 32 | 3.2 | 4.8 | 0.00 | 0.03 | 0.03 | 99 | 1015.5 |
| 20260904084720 | 18 | 33 | 0.0 | 0.0 | 0.00 | 0.03 | 0.03 | 99 | 1015.3 |
| 20260904084216 | 18 | 33 | 0.0 | 0.0 | 0.00 | 0.03 | 0.03 | 99 | 1015.3 |
| 20260904083712 | 18 | 33 | 1.6 | 1.6 | 0.00 | 0.03 | 0.03 | 99 | 1015.3 |
| 20260904083209 | 18 | 33 | 0.0 | 0.0 | 0.00 | 0.03 | 0.03 | 99 | 1015.1 |
| 20260904082703 | 19 | 33 | 0.0 | 0.0 | 0.00 | 0.03 | 0.03 | 99 | 1015.5 |
| 20260904082158 | 19 | 33 | 0.0 | 0.0 | 0.00 | 0.03 | 0.03 | 99 | 1015.5 |
| 20260904081654 | 19 | 33 | 0.0 | 0.0 | 0.00 | 0.03 | 0.03 | 99 | 1015.7 |
| 20260904081149 | 19 | 33 | 0.0 | 0.0 | 0.00 | 0.03 | 0.03 | 99 | 1015.6 |
| 20260904080644 | 19 | 33 | 0.0 | 0.0 | 0.00 | 0.03 | 0.03 | 99 | 1015.6 |
| 20260904080140 | 19 | 33 | 0.0 | 0.0 | 0.00 | 0.03 | 0.03 | 99 | 1015.7 |
| 20260904075636 | 19 | 33 | 0.0 | 0.0 | 0.00 | 0.03 | 0.03 | 99 | 1015.7 |
| 20260904075131 | 19 | 32 | 0.0 | 0.0 | 0.00 | 0.03 | 0.03 | 99 | 1015.7 |
| 20260904074625 | 19 | 33 | 0.0 | 0.0 | 0.00 | 0.03 | 0.03 | 99 | 1015.5 |
| 20260904074120 | 19 | 33 | 0.0 | 0.0 | 0.00 | 0.03 | 0.03 | 99 | 1015.6 |
| 20260904073614 | 19 | 33 | 0.0 | 0.0 | 0.00 | 0.03 | 0.03 | 99 | 1015.7 |
| 20260904073111 | 19 | 32 | 0.0 | 0.0 | 0.00 | 0.03 | 0.03 | 99 | 1016.0 |
| 20260904072606 | 19 | 32 | 0.0 | 0.0 | 0.00 | 0.03 | 0.03 | 99 | 1015.7 |
| 20260904072101 | 19 | 32 | 0.0 | 0.0 | 0.00 | 0.03 | 0.03 | 99 | 1015.5 |
| 20260904071557 | 19 | 32 | 0.0 | 0.0 | 0.00 | 0.03 | 0.03 | 99 | 1015.7 |
| 20260904071052 | 19 | 32 | 0.0 | 0.0 | 0.00 | 0.03 | 0.03 | 99 | 1015.7 |
| 20260904070550 | 19 | 33 | 0.0 | 0.0 | 0.00 | 0.03 | 0.03 | 99 | 1015.6 |
| 20260904070045 | 19 | 32 | 0.0 | 0.0 | 0.00 | 0.03 | 0.03 | 99 | 1015.4 |
| 20260904065540 | 19 | 33 | 0.0 | 0.0 | 0.00 | 0.03 | 0.03 | 99 | 1015.5 |
| 20260904065037 | 19 | 32 | 0.0 | 0.0 | 0.00 | 0.03 | 0.03 | 99 | 1015.5 |
| 20260904064533 | 19 | 32 | 0.0 | 0.0 | 0.00 | 0.03 | 0.03 | 99 | 1015.9 |
| 20260904064033 | 19 | 32 | 0.0 | 0.0 | 0.00 | 0.03 | 0.03 | 99 | 1015.8 |
| 20260904063529 | 19 | 32 | 0.0 | 0.0 | 0.00 | 0.03 | 0.03 | 98 | 1015.8 |
| 20260904063024 | 19 | 32 | 0.0 | 0.0 | 0.00 | 0.03 | 0.03 | 98 | 1015.7 |
| 20260904062520 | 19 | 33 | 0.0 | 0.0 | 0.00 | 0.03 | 0.03 | 98 | 1015.9 |
| 20260904062015 | 19 | 33 | 0.0 | 0.0 | 0.00 | 0.03 | 0.03 | 98 | 1015.9 |
| 20260904061511 | 20 | 33 | 0.0 | 0.0 | 0.00 | 0.03 | 0.03 | 98 | 1015.9 |
| 20260904061007 | 20 | 33 | 0.0 | 0.0 | 0.00 | 0.03 | 0.03 | 98 | 1015.8 |
| 20260904060503 | 20 | 32 | 0.0 | 0.0 | 0.00 | 0.03 | 0.03 | 98 | 1016.1 |
| 20260904055959 | 20 | 32 | 0.0 | 1.6 | 0.00 | 0.03 | 0.03 | 98 | 1016.0 |
| 20260904055454 | 20 | 32 | 1.6 | 1.6 | 0.00 | 0.03 | 0.03 | 98 | 1016.0 |
| 20260904054949 | 20 | 32 | 1.6 | 1.6 | 0.00 | 0.03 | 0.03 | 98 | 1016.0 |
| 20260904054445 | 20 | 32 | 0.0 | 1.6 | 0.00 | 0.03 | 0.03 | 98 | 1016.2 |
| 20260904053941 | 20 | 33 | 0.0 | 0.0 | 0.00 | 0.03 | 0.03 | 98 | 1015.9 |
| 20260904053440 | 19 | 33 | 0.0 | 0.0 | 0.00 | 0.03 | 0.03 | 98 | 1016.2 |
| 20260904052936 | 20 | 33 | 0.0 | 0.0 | 0.00 | 0.03 | 0.03 | 98 | 1015.9 |
| 20260904052432 | 20 | 33 | 1.6 | 1.6 | 0.00 | 0.03 | 0.03 | 98 | 1015.9 |
| 20260904051928 | 20 | 33 | 0.0 | 0.0 | 0.00 | 0.03 | 0.03 | 98 | 1015.9 |
| 20260904051424 | 20 | 33 | 1.6 | 1.6 | 0.00 | 0.03 | 0.03 | 98 | 1015.9 |
| 20260904050918 | 20 | 32 | 0.0 | 0.0 | 0.00 | 0.03 | 0.03 | 98 | 1015.6 |
| 20260904050415 | 20 | 32 | 0.0 | 0.0 | 0.00 | 0.03 | 0.03 | 98 | 1015.6 |
| 20260904045914 | 20 | 40 | 0.0 | 1.6 | 0.00 | 0.03 | 0.03 | 98 | 1015.5 |
| 20260904045409 | 20 | 40 | 1.6 | 1.6 | 0.00 | 0.03 | 0.03 | 98 | 1015.4 |
| 20260904044909 | 20 | 22 | 1.6 | 1.6 | 0.00 | 0.03 | 0.03 | 98 | 1015.4 |
| 20260904044406 | 20 | 82 | 1.6 | 1.6 | 0.00 | 0.03 | 0.03 | 98 | 1015.4 |
| 20260904043902 | 20 | 82 | 0.0 | 0.0 | 0.00 | 0.03 | 0.03 | 97 | 1015.2 |
| 20260904043358 | 20 | 231 | 3.2 | 4.8 | 0.00 | 0.03 | 0.03 | 98 | 1015.2 |
| 20260904042853 | 20 | 90 | 0.0 | 1.6 | 0.00 | 0.03 | 0.03 | 97 | 1015.3 |
| 20260904042349 | 20 | 73 | 1.6 | 4.8 | 0.00 | 0.03 | 0.03 | 97 | 1015.4 |
| 20260904041844 | 20 | 268 | 1.6 | 4.8 | 0.13 | 0.03 | 0.03 | 97 | 1015.1 |
| 20260904041340 | 20 | 107 | 3.2 | 6.4 | 0.13 | 0.03 | 0.03 | 97 | 1015.2 |
| 20260904040836 | 20 | 160 | 8.0 | 8.0 | 0.00 | 0.00 | 0.00 | 97 | 1015.5 |
| 20260904040331 | 20 | 170 | 1.6 | 4.8 | 0.30 | 0.00 | 0.00 | 97 | 1015.7 |
| 20260904035827 | 20 | 4 | 1.6 | 1.6 | 0.97 | 1.85 | 1.85 | 97 | 1015.7 |
| 20260904035323 | 20 | 42 | 3.2 | 4.8 | 0.48 | 1.78 | 1.78 | 97 | 1015.7 |
| 20260904034821 | 20 | 320 | 3.2 | 6.4 | 0.00 | 1.70 | 1.70 | 97 | 1016.4 |
| 20260904034317 | 20 | 6 | 12.9 | 16.1 | 0.00 | 1.70 | 1.70 | 97 | 1016.0 |
| 20260904033813 | 20 | 338 | 1.6 | 4.8 | 0.00 | 1.70 | 1.70 | 97 | 1015.4 |
| 20260904033309 | 20 | 217 | 6.4 | 8.0 | 0.00 | 1.70 | 1.70 | 97 | 1015.2 |
| 20260904032805 | 20 | 137 | 1.6 | 11.3 | 0.00 | 1.70 | 1.70 | 97 | 1015.2 |
| 20260904032306 | 20 | 170 | 4.8 | 6.4 | 0.00 | 1.70 | 1.70 | 97 | 1015.2 |
| 20260904031759 | 20 | 224 | 1.6 | 12.9 | 0.00 | 1.70 | 1.70 | 97 | 1015.2 |
| 20260904031254 | 20 | 250 | 4.8 | 8.0 | 0.00 | 1.70 | 1.70 | 97 | 1015.3 |
| 20260904030750 | 20 | 143 | 1.6 | 11.3 | 0.00 | 1.70 | 1.70 | 97 | 1015.4 |
| 20260904030245 | 20 | 228 | 4.8 | 6.4 | 0.00 | 1.70 | 1.70 | 97 | 1015.3 |
| 20260904025736 | 20 | 98 | 4.8 | 6.4 | 0.00 | 1.70 | 1.70 | 97 | 1015.4 |
| 20260904025231 | 20 | 214 | 0.0 | 4.8 | 0.00 | 1.70 | 1.70 | 97 | 1015.4 |
| 20260904024726 | 20 | 338 | 3.2 | 4.8 | 0.00 | 1.70 | 1.70 | 97 | 1015.4 |
| 20260904024221 | 20 | 262 | 4.8 | 4.8 | 0.00 | 1.70 | 1.70 | 97 | 1015.6 |
| 20260904023712 | 20 | 210 | 3.2 | 8.0 | 0.00 | 1.70 | 1.70 | 97 | 1015.5 |
| 20260904023208 | 20 | 213 | 6.4 | 8.0 | 0.00 | 1.70 | 1.70 | 97 | 1015.3 |
| 20260904022707 | 20 | 231 | 4.8 | 8.0 | 0.00 | 1.70 | 1.70 | 98 | 1015.2 |
| 20260904022204 | 20 | 133 | 4.8 | 4.8 | 0.00 | 1.70 | 1.70 | 97 | 1015.3 |
| 20260904021659 | 20 | 315 | 0.0 | 6.4 | 0.00 | 1.70 | 1.70 | 97 | 1015.2 |
| 20260904021153 | 20 | 239 | 4.8 | 8.0 | 0.00 | 1.70 | 1.70 | 97 | 1015.4 |
| 20260904020645 | 20 | 168 | 3.2 | 8.0 | 0.00 | 1.70 | 1.70 | 97 | 1015.4 |
| 20260904020139 | 20 | 100 | 1.6 | 1.6 | 0.00 | 1.70 | 1.70 | 97 | 1015.6 |
| 20260904015638 | 20 | 224 | 3.2 | 4.8 | 0.00 | 1.70 | 1.70 | 97 | 1015.5 |
| 20260904015137 | 20 | 222 | 3.2 | 4.8 | 0.00 | 1.70 | 1.70 | 97 | 1015.4 |
| 20260904014636 | 20 | 127 | 1.6 | 1.6 | 0.00 | 1.70 | 1.70 | 97 | 1015.3 |
| 20260904014132 | 20 | 120 | 0.0 | 1.6 | 0.00 | 1.70 | 1.70 | 97 | 1015.3 |
| 20260904013629 | 20 | 122 | 1.6 | 4.8 | 0.00 | 1.70 | 1.70 | 97 | 1015.2 |
| 20260904013124 | 20 | 161 | 1.6 | 1.6 | 0.00 | 1.70 | 1.70 | 97 | 1015.1 |
| 20260904012620 | 20 | 95 | 0.0 | 1.6 | 0.00 | 1.70 | 1.70 | 97 | 1015.3 |
| 20260904012119 | 20 | 85 | 1.6 | 6.4 | 0.00 | 1.70 | 1.70 | 97 | 1015.2 |
| 20260904011618 | 20 | 93 | 1.6 | 1.6 | 0.00 | 1.70 | 1.70 | 97 | 1015.1 |
| 20260904011114 | 20 | 86 | 0.0 | 1.6 | 0.00 | 1.70 | 1.70 | 97 | 1015.0 |
| 20260904010609 | 20 | 335 | 1.6 | 1.6 | 0.00 | 1.70 | 1.70 | 97 | 1015.4 |
| 20260904010106 | 20 | 121 | 0.0 | 6.4 | 0.00 | 1.70 | 1.70 | 97 | 1015.6 |
| 20260904005600 | 20 | 105 | 3.2 | 4.8 | 0.00 | 1.70 | 1.70 | 97 | 1015.8 |
| 20260904005056 | 20 | 138 | 1.6 | 4.8 | 0.00 | 1.70 | 1.70 | 97 | 1015.6 |
| 20260904004551 | 20 | 63 | 0.0 | 0.0 | 0.00 | 1.70 | 1.70 | 96 | 1016.0 |
| 20260904004046 | 20 | 230 | 0.0 | 0.0 | 0.00 | 1.70 | 1.70 | 96 | 1016.0 |
| 20260904003542 | 20 | 116 | 4.8 | 4.8 | 0.00 | 1.70 | 1.70 | 96 | 1015.5 |
| 20260904003038 | 20 | 93 | 4.8 | 8.0 | 0.00 | 1.70 | 1.70 | 96 | 1015.6 |
| 20260904002533 | 20 | 76 | 1.6 | 1.6 | 0.00 | 1.70 | 1.70 | 96 | 1015.7 |
| 20260904002033 | 20 | 63 | 1.6 | 1.6 | 0.13 | 1.70 | 1.70 | 96 | 1015.9 |
| 20260904001529 | 20 | 76 | 4.8 | 8.0 | 0.13 | 1.70 | 1.70 | 96 | 1015.8 |
| 20260904001028 | 20 | 65 | 0.0 | 6.4 | 0.18 | 1.68 | 1.68 | 96 | 1016.1 |
| 20260904000527 | 20 | 79 | 0.0 | 6.4 | 0.48 | 1.68 | 1.68 | 95 | 1016.2 |
| 20260904000023 | 20 | 89 | 1.6 | 6.4 | 0.61 | 1.65 | 1.65 | 95 | 1016.4 |
| 20260903235518 | 20 | 16 | 4.8 | 8.0 | 0.61 | 1.60 | 1.60 | 95 | 1017.0 |
| 20260903235014 | 20 | 57 | 3.2 | 8.0 | 0.43 | 1.55 | 1.55 | 95 | 1017.3 |
| 20260903234509 | 20 | 36 | 8.0 | 8.0 | 0.48 | 1.50 | 1.50 | 95 | 1017.6 |
| 20260903234005 | 20 | 44 | 1.6 | 6.4 | 0.79 | 1.45 | 1.45 | 94 | 1017.9 |
| 20260903233501 | 20 | 55 | 11.3 | 17.7 | 1.19 | 1.42 | 1.42 | 94 | 1017.7 |
| 20260903232955 | 20 | 357 | 12.9 | 16.1 | 1.55 | 1.30 | 1.30 | 94 | 1017.8 |
| 20260903232451 | 20 | 341 | 6.4 | 12.9 | 1.85 | 1.19 | 1.19 | 93 | 1018.1 |
| 20260903231950 | 21 | 320 | 4.8 | 11.3 | 1.19 | 1.02 | 1.02 | 92 | 1018.2 |
| 20260903231446 | 21 | 342 | 12.9 | 17.7 | 0.79 | 0.89 | 0.89 | 92 | 1017.8 |
| 20260903230940 | 21 | 41 | 11.3 | 19.3 | 0.30 | 0.79 | 0.79 | 91 | 1017.1 |
| 20260903230436 | 21 | 357 | 27.4 | 41.8 | 0.13 | 0.76 | 0.76 | 88 | 1016.7 |
| 20260903225932 | 22 | 350 | 25.7 | 37.0 | 0.00 | 0.74 | 0.74 | 86 | 1016.3 |
| 20260903225427 | 23 | 356 | 35.4 | 53.1 | 0.00 | 0.74 | 0.74 | 83 | 1016.6 |
| 20260903224924 | 24 | 21 | 48.3 | 59.5 | 0.00 | 0.74 | 0.74 | 81 | 1016.3 |
| 20260903224419 | 23 | 344 | 9.7 | 11.3 | 0.00 | 0.74 | 0.74 | 85 | 1014.8 |
| 20260903223915 | 23 | 358 | 8.0 | 8.0 | 0.00 | 0.74 | 0.74 | 85 | 1014.4 |
| 20260903223414 | 23 | 5 | 12.9 | 16.1 | 0.00 | 0.74 | 0.74 | 86 | 1014.4 |
| 20260903222913 | 23 | 343 | 4.8 | 16.1 | 0.00 | 0.74 | 0.74 | 87 | 1014.3 |
| 20260903222408 | 23 | 330 | 3.2 | 4.8 | 0.00 | 0.74 | 0.74 | 88 | 1014.4 |
| 20260903221902 | 23 | 66 | 4.8 | 11.3 | 0.00 | 0.74 | 0.74 | 88 | 1014.4 |
| 20260903221402 | 23 | 333 | 1.6 | 6.4 | 0.00 | 0.74 | 0.74 | 87 | 1014.5 |
| 20260903220900 | 24 | 169 | 1.6 | 4.8 | 0.00 | 0.74 | 0.74 | 86 | 1014.3 |
| 20260903220348 | 24 | 72 | 3.2 | 8.0 | 0.00 | 0.74 | 0.74 | 83 | 1013.9 |
| 20260903215846 | 24 | 24 | 1.6 | 1.6 | 0.00 | 0.74 | 0.74 | 81 | 1014.1 |
| 20260903215344 | 24 | 139 | 3.2 | 4.8 | 0.00 | 0.74 | 0.74 | 83 | 1014.7 |
| 20260903214841 | 24 | 124 | 3.2 | 11.3 | 0.00 | 0.74 | 0.74 | 80 | 1014.1 |
| 20260903214337 | 24 | 200 | 4.8 | 6.4 | 0.00 | 0.74 | 0.74 | 84 | 1014.4 |
| 20260903213831 | 25 | 147 | 0.0 | 4.8 | 0.00 | 0.74 | 0.74 | 82 | 1014.3 |
| 20260903213327 | 25 | 349 | 1.6 | 4.8 | 0.00 | 0.74 | 0.74 | 81 | 1014.6 |
| 20260903212823 | 24 | 145 | 3.2 | 8.0 | 0.00 | 0.74 | 0.74 | 81 | 1014.2 |
| 20260903212319 | 25 | 314 | 1.6 | 1.6 | 0.00 | 0.74 | 0.74 | 81 | 1014.0 |
| 20260903211818 | 25 | 248 | 8.0 | 11.3 | 0.00 | 0.74 | 0.74 | 80 | 1013.8 |
| 20260903211315 | 25 | 283 | 6.4 | 11.3 | 0.00 | 0.74 | 0.74 | 79 | 1013.8 |
| 20260903210810 | 25 | 220 | 4.8 | 11.3 | 0.00 | 0.74 | 0.74 | 77 | 1014.0 |
| 20260903210305 | 25 | 106 | 6.4 | 16.1 | 0.00 | 0.74 | 0.74 | 75 | 1013.8 |
| 20260903205759 | 25 | 219 | 1.6 | 17.7 | 0.00 | 0.74 | 0.74 | 73 | 1013.8 |
| 20260903205259 | 26 | 162 | 9.7 | 11.3 | 0.00 | 0.74 | 0.74 | 69 | 1013.9 |
| 20260903204754 | 26 | 117 | 4.8 | 4.8 | 0.00 | 0.74 | 0.74 | 66 | 1013.8 |
| 20260903204250 | 26 | 99 | 4.8 | 8.0 | 0.00 | 0.74 | 0.74 | 66 | 1014.1 |
| 20260903203751 | 26 | 149 | 9.7 | 11.3 | 0.00 | 0.74 | 0.74 | 66 | 1014.0 |
| 20260903203246 | 26 | 106 | 4.8 | 6.4 | 0.00 | 0.74 | 0.74 | 67 | 1014.3 |
| 20260903202745 | 26 | 64 | 3.2 | 8.0 | 0.00 | 0.74 | 0.74 | 64 | 1014.4 |
| 20260903202242 | 26 | 121 | 11.3 | 19.3 | 0.00 | 0.74 | 0.74 | 65 | 1014.3 |
| 20260903201741 | 26 | 162 | 12.9 | 16.1 | 0.00 | 0.74 | 0.74 | 67 | 1014.5 |
| 20260903201236 | 25 | 351 | 8.0 | 17.7 | 0.00 | 0.74 | 0.74 | 65 | 1014.8 |
| 20260903200735 | 23 | 351 | 20.9 | 25.7 | 0.00 | 0.74 | 0.74 | 66 | 1014.8 |
| 20260903200231 | 25 | 151 | 29.0 | 57.9 | 0.00 | 0.74 | 0.74 | 65 | 1014.0 |
| 20260903195726 | 25 | 225 | 6.4 | 19.3 | 0.00 | 0.74 | 0.74 | 66 | 1014.3 |
| 20260903195222 | 26 | 226 | 14.5 | 29.0 | 0.00 | 0.74 | 0.74 | 62 | 1013.8 |
| 20260903194722 | 26 | 229 | 9.7 | 22.5 | 0.00 | 0.74 | 0.74 | 62 | 1013.5 |
| 20260903194218 | 27 | 247 | 6.4 | 17.7 | 0.00 | 0.74 | 0.74 | 58 | 1013.8 |
| 20260903193713 | 28 | 212 | 9.7 | 19.3 | 0.00 | 0.74 | 0.74 | 56 | 1013.8 |
| 20260903193208 | 28 | 223 | 20.9 | 29.0 | 0.00 | 0.74 | 0.74 | 55 | 1013.9 |
| 20260903192704 | 30 | 291 | 14.5 | 24.1 | 0.00 | 0.74 | 0.74 | 59 | 1014.1 |
| 20260903192200 | 31 | 268 | 12.9 | 22.5 | 0.00 | 0.74 | 0.74 | 62 | 1013.9 |
| 20260903191656 | 31 | 236 | 1.6 | 6.4 | 0.00 | 0.74 | 0.74 | 65 | 1013.4 |
| 20260903191155 | 31 | 232 | 3.2 | 6.4 | 0.00 | 0.74 | 0.74 | 66 | 1013.4 |
| 20260903190650 | 31 | 217 | 6.4 | 8.0 | 0.00 | 0.74 | 0.74 | 64 | 1013.9 |
| 20260903190145 | 32 | 215 | 6.4 | 11.3 | 0.00 | 0.74 | 0.74 | 62 | 1014.2 |
| 20260903185640 | 33 | 151 | 3.2 | 4.8 | 0.00 | 0.74 | 0.74 | 61 | 1014.5 |
| 20260903185135 | 33 | 145 | 8.0 | 12.9 | 0.00 | 0.74 | 0.74 | 58 | 1014.4 |
| 20260903184632 | 32 | 227 | 1.6 | 6.4 | 0.00 | 0.74 | 0.74 | 60 | 1014.4 |
| 20260903184127 | 32 | 125 | 4.8 | 12.9 | 0.00 | 0.74 | 0.74 | 62 | 1014.6 |
| 20260903183625 | 32 | 184 | 4.8 | 8.0 | 0.00 | 0.74 | 0.74 | 60 | 1014.7 |
| 20260903183121 | 32 | 42 | 0.0 | 4.8 | 0.00 | 0.74 | 0.74 | 63 | 1015.0 |
| 20260903182620 | 32 | 199 | 4.8 | 8.0 | 0.00 | 0.74 | 0.74 | 61 | 1014.8 |
| 20260903182116 | 32 | 169 | 6.4 | 8.0 | 0.00 | 0.74 | 0.74 | 62 | 1014.8 |
| 20260903181614 | 31 | 267 | 3.2 | 8.0 | 0.00 | 0.74 | 0.74 | 65 | 1015.0 |
| 20260903181109 | 31 | 351 | 1.6 | 6.4 | 0.00 | 0.74 | 0.74 | 63 | 1014.9 |
| 20260903180605 | 31 | 238 | 9.7 | 16.1 | 0.00 | 0.74 | 0.74 | 64 | 1014.9 |
| 20260903180059 | 31 | 240 | 8.0 | 11.3 | 0.00 | 0.74 | 0.74 | 65 | 1015.1 |
| 20260903175558 | 31 | 284 | 3.2 | 11.3 | 0.00 | 0.74 | 0.74 | 65 | 1015.0 |
| 20260903175058 | 31 | 355 | 11.3 | 12.9 | 0.00 | 0.74 | 0.74 | 64 | 1015.1 |
| 20260903174553 | 31 | 236 | 6.4 | 8.0 | 0.00 | 0.74 | 0.74 | 65 | 1015.1 |
| 20260903174047 | 30 | 251 | 8.0 | 11.3 | 0.00 | 0.74 | 0.74 | 69 | 1015.2 |
| 20260903173542 | 30 | 283 | 4.8 | 6.4 | 0.00 | 0.74 | 0.74 | 67 | 1015.4 |
| 20260903173038 | 31 | 262 | 3.2 | 8.0 | 0.00 | 0.74 | 0.74 | 67 | 1015.5 |
| 20260903172533 | 31 | 273 | 4.8 | 4.8 | 0.00 | 0.74 | 0.74 | 66 | 1015.5 |
| 20260903172028 | 30 | 255 | 4.8 | 8.0 | 0.00 | 0.74 | 0.74 | 66 | 1015.7 |
| 20260903171523 | 30 | 260 | 1.6 | 4.8 | 0.00 | 0.74 | 0.74 | 67 | 1015.6 |
| 20260903171019 | 30 | 328 | 4.8 | 12.9 | 0.00 | 0.74 | 0.74 | 68 | 1015.6 |
| 20260903170517 | 30 | 271 | 4.8 | 11.3 | 0.00 | 0.74 | 0.74 | 67 | 1015.8 |
| 20260903170013 | 30 | 142 | 4.8 | 8.0 | 0.00 | 0.74 | 0.74 | 70 | 1015.8 |
| 20260903165505 | 30 | 225 | 6.4 | 8.0 | 0.00 | 0.74 | 0.74 | 67 | 1015.7 |
| 20260903165000 | 29 | 273 | 1.6 | 11.3 | 0.00 | 0.74 | 0.74 | 68 | 1015.9 |
| 20260903164455 | 29 | 165 | 4.8 | 12.9 | 0.00 | 0.74 | 0.74 | 69 | 1015.9 |
| 20260903163955 | 29 | 256 | 4.8 | 6.4 | 0.00 | 0.74 | 0.74 | 70 | 1016.0 |
| 20260903163451 | 28 | 315 | 4.8 | 8.0 | 0.00 | 0.74 | 0.74 | 71 | 1016.0 |
| 20260903162946 | 28 | 120 | 1.6 | 8.0 | 0.00 | 0.74 | 0.74 | 70 | 1015.9 |
| 20260903162437 | 28 | 148 | 4.8 | 6.4 | 0.00 | 0.74 | 0.74 | 72 | 1015.9 |
| 20260903161932 | 28 | 269 | 8.0 | 12.9 | 0.00 | 0.74 | 0.74 | 71 | 1016.0 |
| 20260903161422 | 28 | 279 | 6.4 | 16.1 | 0.00 | 0.74 | 0.74 | 71 | 1015.9 |